Location: Alta
(39.2070°N, 120.8111°W)
Time: 05:12:38
(UTC+00:00)

CZ-4B DEB - Pass Details

Date: 13 December 2023
Orbit: 838 x 858 km, 99.0° (Epoch: 02 March)

Event Time Altitude Azimuth Distance (km) Brightness Sun altitude
Rises 03:28:44 0° 178° (S) 3,414 7.4 -31.7°
Reaches altitude 10° 03:31:09 10° 183° (S) 2,483 6.7 -32.2°
Enters shadow 03:33:47 28° 197° (SSW) 1,558 5.7 -32.7°
Exits shadow 03:36:15 52° 249° (WSW) 1,061 4.9 -33.2°
Maximum altitude 03:36:31 52° 259° (W) 1,055 4.9 -33.2°
Drops below altitude 10° 03:41:56 10° 336° (NNW) 2,500 6.8 -34.3°
Sets 03:44:23 0° 341° (NNW) 3,439 7.5 -34.7°
